Location: Plainartige
(45.6866°N, 1.7993°E)
Time: 03:39:48
(UTC+00:00)

Vanguard 1 - Pass Details

Date: 29 May 2022
Orbit: 649 x 3833 km, 34.2° (Epoch: 06 July)

Event Time Altitude Azimuth Distance (km) Brightness Sun altitude
Exits shadow 23:35:59 31° 180° (S) 3,267 12.1 -22.5°
Maximum altitude 23:40:18 38° 147° (SSE) 3,382 12.3 -22.5°
Drops below altitude 10° 23:56:51 10° 89° (E) 6,468 14.2 -22.6°
Sets 00:03:04 0° 83° (E) 7,784 14.8 -22.5°
